Flag for Chile Weather past 2 weeks in Temuco, Chile

Now
54 °F

Broken clouds.


Feels Like: 52 °F
Forecast: 42 / 57 °F
Wind: 7 mph from Northwest

Location: Concepcion Airport

Current Time: Aug 30, 2014 at 9:06:57 AM

Latest Report: Aug 30, 2014 at 8:00 AM


Visibility: N/A

Pressure: 29.98 "Hg

Humidity: 94%

Dew point: 52 °F

Location of TemucoLocation

Historic Weather in Temuco — Graph

°F

Temuco temperature yesterday

Maximum temperature yesterday: 59 °F (at 3:00 PM)
Minimum temperature yesterday: 52 °F (at 12:00 AM)
Average temperature yesterday: 54 °F

Past Weeks' High & Low Weather Summary

 TemperatureHumidityPressure
High68 °F (Aug 16, 2:00 PM)100% (Aug 16, 10:00 PM)30.33 "Hg (Aug 16, 10:00 PM)
Low41 °F (Aug 26, 5:00 AM)38% (Aug 16, 2:00 PM)29.83 "Hg (Aug 29, 3:00 PM)
Average52 °F83%30.03 "Hg
* Reported Aug 15 8:00 AM — Aug 30 8:00 AM, Temuco, Weather by CustomWeather, © 2014

Note: Actual official high and low records may vary slightly from our data, if they occured in-between our weather recording intervals... More about our weather records

Advertising

Temuco weather history for previous 24 hours

 ConditionsComfort  
Time TempWeatherWind HumidityBarometerVisibility
8:00 AM
Aug 30
54 °FBroken clouds.7 mph94%29.98 "HgN/A
7:00 AM54 °FLight rain. Mostly cloudy.20 mph100%29.92 "Hg3 mi
6:00 AM54 °FRain. Mostly cloudy.31 mph94%29.86 "Hg2 mi
5:00 AM54 °FLight rain. Mostly cloudy.35 mph94%29.83 "Hg4 mi
4:00 AM54 °FLight rain. Mostly cloudy.31 mph94%29.83 "Hg3 mi
3:00 AM54 °FLight rain. Mostly cloudy.30 mph88%29.83 "Hg5 mi
2:00 AM54 °FRain. Overcast.22 mph94%29.83 "Hg4 mi
1:00 AM54 °FRain. Overcast.22 mph88%29.83 "Hg2 mi
12:00 AM55 °FOvercast.15 mph72%29.83 "HgN/A
11:00 PM
Aug 29
55 °FOvercast.15 mph72%29.83 "HgN/A
10:00 PM55 °FOvercast.18 mph72%29.83 "HgN/A
9:00 PM55 °FPassing clouds.22 mph72%29.83 "HgN/A
8:00 PM55 °FPartly cloudy.13 mph72%29.86 "HgN/A
7:00 PM54 °FPassing clouds.15 mph72%29.83 "HgN/A
6:00 PM55 °FPassing clouds.16 mph77%29.83 "HgN/A
5:00 PM57 °FBroken clouds.20 mph72%29.83 "HgN/A
3:00 PM59 °FSunny.14 mph59%29.83 "Hg10 mi
2:00 PM57 °FPartly sunny.9 mph67%29.86 "HgN/A
1:00 PM57 °FMore clouds than sun.7 mph72%29.89 "HgN/A
12:00 PM55 °FOvercast.7 mph72%29.92 "HgN/A
11:00 AM54 °FPartly sunny.3 mph77%29.92 "HgN/A
10:00 AM54 °FBroken clouds.5 mph72%29.92 "HgN/A
9:00 AM54 °FPartly sunny.1 mph72%29.95 "HgN/A
Weather by CustomWeather, © 2014

See weather overviewHow to use our weather pages